Location: Unspecified
(0.0000°N, 0.0000°E)
Time: 20:45:07
(UTC+00:00)

Tiangong - Pass Details

Date: 28 March 2023
Orbit: 373 x 379 km, 41.5° (Epoch: 30 March)

Event Time Altitude Azimuth Distance (km) Brightness Sun altitude
Rises 18:38:40 0° 313° (NW) 2,218 2.6 -8.4°
Reaches altitude 10° 18:40:43 10° 312° (NW) 1,370 1.5 -8.9°
Maximum altitude 18:43:49 83° 224° (SW) 378 -2.2 -9.7°
Drops below altitude 10° 18:46:54 10° 136° (SE) 1,371 0.2 -10.4°
Enters shadow 18:47:03 - 136° (SE) 1,430 0.3 -10.5°
